Regional Weather Roundup
Issued by NWS

Home | Current Version | Previous Version | Graphics & Text | Print | Product List | Glossary On
Versions: 1 2 3 4 5 6 7 8 9 10 11 12 13 14 15 16 17 18 19 20 21 22 23 24 25 26 27 28 29 30 31 32 33 34 35 36 37 38 39 40 41 42 43 44 45 46 47 48 49 50
000
ASUS45 KSLC 010910
RWRUT

UTAH REGIONAL WEATHER ROUNDUP
NATIONAL WEATHER SERVICE SALT LAKE CITY UT
300 AM MDT WED JUL 01 2015

UTZ001>011-023>025-011000-

NORTHERN UTAH

CITY           SKY/WX    TMP DP  RH WIND       PRES   REMARKS
BRIGHAM CITY   MOCLDY    77  52  41 NW5       30.06F
HILL AFB       MOCLDY    74  54  50 E13       30.09F
LOGAN          CLEAR     73  53  49 SE3       30.08F
OGDEN          MOCLDY    75  54  47 SE7       30.06F
PROVO AIRPORT  CLOUDY    73  54  49 S5        30.10F
SALT LAKE CITY MOCLDY    79  55  43 S9        30.06F
VERNAL         CLOUDY    65  52  62 W6        30.13R
WENDOVER       MOCLDY    75  54  46 W7        30.08F
HEBER CITY     CLOUDY    70  52  52 E6        30.21F
WEST JORDAN    CLEAR     75  54  46 SW3       30.12F

$$

UTZ012>022-026-027-011000-

SOUTHERN/CENTRAL UTAH

CITY           SKY/WX    TMP DP  RH WIND       PRES   REMARKS
BLANDING       CLOUDY    74  41  30 NE6       30.18S
BRYCE CANYON   MOCLDY    61  45  55 NE14      30.32F
CEDAR CITY     PTCLDY    63  47  55 NW3       30.15F
DELTA          MOCLDY    74  55  50 N13       30.10S
HANKSVILLE     MOCLDY    77  46  33 N3        30.04S
MILFORD        PTCLDY    69  46  43 N7        30.10F
MOAB/CYNLANDS  CLEAR     78  43  28 NW10      30.02R
PRICE          CLOUDY    79  44  28 N8        30.15F
ST GEORGE      CLOUDY    84  43  23 S6        29.89R
KANAB          PTCLDY    72  46  40 E3        30.12R

$$

REGIONAL REPORTS     COLORADO/ARIZONA

CITY           SKY/WX    TMP DP  RH WIND       PRES   REMARKS
CRAIG, CO      CLOUDY    55  48  77 CALM      30.21S
GRAND JUNCTION PTCLDY    70  46  42 E5        30.06R
RIFLE          MOCLDY    67  44  43 CALM      30.14S
MONTROSE       PTCLDY    68  46  45 SE7       30.15F
CORTEZ         CLEAR     67  47  48 N6        30.13R
PAGE, AZ       PTCLDY    85  43  22 CALM      29.98S
GRAND CANYON   CLEAR     56  53  90 CALM      30.22S
KINGMAN        MOCLDY    84  55  36 SW23G30   29.98R
FLAGSTAFF      PTCLDY    63  55  75 SW13      30.24S

$$

REGIONAL REPORTS    NEVADA/IDAHO/WYOMING

CITY           SKY/WX    TMP DP  RH WIND       PRES   REMARKS
LAS VEGAS, NV  MOCLDY    98  49  18 S13       29.75R THUNDER HX  95
ELY            CLOUDY    68  52  56 NE13      30.28F
ELKO           MOCLDY    65  55  70 W5        30.17F
POCATELLO, ID  CLEAR     68  61  78 N8        30.09R
BURLEY         CLOUDY    75  52  44 S16       30.02S
EVANSTON, WY   MOCLDY    67  48  50 S8G20     30.30F
ROCK SPRINGS   MOCLDY    57  51  80 S8        30.25S
KEMMERER       MOCLDY    63  46  55 N5        30.32R

$$



USA.gov is the U.S. government's official web portal to all federal, state and local government web resources and services.